Date String (YYYY-MM-DD hh:mm:ss) UTC,Instrument flags,absolute air pressure of the measurement (hPa),sample flow rate (lpm),inlet stack bypass flow (lpm),air temperature of the measurement (°C),ambient temperature measured by the external sensor (°C),aerosol sample conditioner tube jacket temperature (°C),OPC LED temperature (°C),internal box temperature (°C),relative humidity of the measurement (%),span deviation,mass concentration of particles derived from Lorenz-Mie calculation of OPC scattering (μg/m³),mass concentration of particles derived from Lorenz-Mie calculation of OPC scattering (μg/m³),mass concentration of particles derived from Lorenz-Mie calculation of OPC scattering (μg/m³)
DateTimeUTC,F1_M11,P_M11,Q1_M11,Q2_M11,T1_M11,T2_M11,T3_M11,T4_M11,T5_M11,U1_M11,ZSPAN_M11,X0_M11,X2_M11,X1_M11
2024-05-01 03:00:00,SystemResetWarning,0824.4,5.00,000.00,025.1,023.5,000.0,033.8,026.8,022.9,0000.0,0010.74,0002.92,0001.65
2024-05-01 03:01:00,SystemResetWarning,0824.4,5.00,000.00,025.1,023.8,000.0,033.8,026.9,022.9,0000.0,0009.93,0003.00,0001.65
2024-05-01 03:02:00,SystemResetWarning,0824.5,5.00,000.00,025.2,024.0,000.0,033.8,027.0,022.8,0000.0,0009.87,0002.95,0001.65
2024-05-01 03:03:00,SystemResetWarning,0824.7,4.98,000.00,025.2,024.2,000.0,033.8,027.0,022.8,0000.0,0009.84,0002.89,0001.65
2024-05-01 03:04:00,SystemResetWarning,0824.9,4.99,000.00,025.3,024.3,000.0,033.8,027.1,022.8,0000.0,0009.83,0002.88,0001.65
2024-05-01 03:05:00,SystemResetWarning,0824.8,5.00,000.00,025.3,024.4,000.0,033.7,027.1,020.9,0000.0,0010.03,0002.92,0001.65
2024-05-01 03:06:00,SystemResetWarning,0824.9,5.00,000.00,025.3,024.5,000.0,033.8,027.2,018.8,0000.0,0009.57,0003.01,0001.69
2024-05-01 03:07:00,SystemResetWarning,0825.0,5.00,000.00,025.3,024.6,000.0,033.8,027.2,018.6,0000.0,0009.47,0003.11,0001.71
2024-05-01 03:08:00,SystemResetWarning,0825.0,5.01,000.00,025.4,024.6,000.0,033.8,027.2,015.6,0000.0,0009.38,0003.23,0001.76
2024-05-01 03:09:00,SystemResetWarning,0824.9,5.01,000.00,025.4,024.7,000.0,033.8,027.3,016.3,0000.0,0010.87,0003.41,0001.81
2024-05-01 03:10:00,SystemResetWarning,0825.0,5.00,000.00,025.4,024.7,000.0,033.8,027.3,016.7,0000.0,0011.89,0003.48,0001.86
2024-05-01 03:11:00,SystemResetWarning,0825.0,4.99,000.00,025.4,024.7,000.0,033.8,027.3,015.2,0000.0,0012.91,0003.57,0001.92
2024-05-01 03:12:00,SystemResetWarning,0825.1,5.00,000.00,025.5,024.8,000.0,033.8,027.3,015.4,0000.0,0012.59,0003.70,0001.97
2024-05-01 03:13:00,SystemResetWarning,0825.1,5.01,000.00,025.5,024.8,000.0,033.8,027.3,015.1,0000.0,0013.91,0003.83,0002.03
2024-05-01 03:14:00,SystemResetWarning,0825.1,5.01,000.00,025.5,024.8,000.0,033.8,027.3,014.8,0000.0,0014.55,0003.97,0002.08
2024-05-01 03:15:00,SystemResetWarning,0825.2,5.00,000.00,025.5,024.8,000.0,033.9,027.3,014.7,0000.0,0015.71,0004.14,0002.15
2024-05-01 03:16:00,SystemResetWarning,0825.2,4.99,000.00,025.5,024.9,000.0,033.9,027.3,014.7,0000.0,0016.36,0004.26,0002.22
2024-05-01 03:17:00,SystemResetWarning,0825.2,4.99,000.00,025.5,024.9,000.0,033.9,027.3,014.3,0000.0,0016.73,0004.34,0002.26
2024-05-01 03:18:00,SystemResetWarning,0825.3,5.01,000.00,025.5,024.9,000.0,033.9,027.3,013.8,0000.0,0017.22,0004.39,0002.29
2024-05-01 03:19:00,SystemResetWarning,0825.4,5.01,000.00,025.5,024.8,000.0,033.9,027.3,013.9,0000.0,0017.39,0004.44,0002.33
2024-05-01 03:20:00,SystemResetWarning,0825.4,4.99,000.00,025.5,024.8,000.0,033.9,027.3,013.7,0000.0,0016.76,0004.41,0002.34
2024-05-01 03:21:00,SystemResetWarning,0825.5,4.99,000.00,025.5,024.8,000.0,033.9,027.3,012.7,0000.0,0016.25,0004.51,0002.37
2024-05-01 03:22:00,SystemResetWarning,0825.5,5.01,000.00,025.5,024.8,000.0,033.9,027.3,012.6,0000.0,0015.26,0004.55,0002.41
2024-05-01 03:23:00,SystemResetWarning,0825.6,5.01,000.00,025.5,024.8,000.0,033.9,027.3,012.7,0000.0,0014.82,0004.48,0002.43
2024-05-01 03:24:00,SystemResetWarning,0825.7,5.01,000.00,025.5,024.8,000.0,033.9,027.3,012.8,0000.0,0013.82,0004.42,0002.49
2024-05-01 03:25:00,SystemResetWarning,0825.7,5.00,000.00,025.5,024.8,000.0,033.9,027.3,012.9,0000.0,0013.33,0004.41,0002.54
2024-05-01 03:26:00,SystemResetWarning,0825.7,4.99,000.00,025.5,024.8,000.0,033.9,027.3,012.4,0000.0,0012.81,0004.37,0002.56
2024-05-01 03:27:00,SystemResetWarning,0825.8,4.99,000.00,025.5,024.8,000.0,034.0,027.3,012.1,0000.0,0012.21,0004.35,0002.58
2024-05-01 03:28:00,SystemResetWarning,0825.8,5.00,000.00,025.5,024.8,000.0,034.0,027.3,012.1,0000.0,0012.26,0004.37,0002.62
2024-05-01 03:29:00,SystemResetWarning,0825.8,5.01,000.00,025.5,024.8,000.0,034.0,027.3,011.9,0000.0,0011.99,0004.40,0002.67
2024-05-01 03:30:00,SystemResetWarning,0825.8,5.01,000.00,025.5,024.8,000.0,034.0,027.3,012.0,0000.0,0012.99,0004.44,0002.71
2024-05-01 03:31:00,SystemResetWarning,0825.9,4.99,000.00,025.5,024.8,000.0,034.0,027.3,012.0,0000.0,0012.47,0004.46,0002.74
2024-05-01 03:32:00,SystemResetWarning,0825.9,4.99,000.00,025.5,024.8,000.0,034.0,027.3,012.1,0000.0,0012.00,0004.43,0002.77
2024-05-01 03:33:00,SystemResetWarning,0825.9,5.00,000.00,025.5,024.8,000.0,034.0,027.3,012.3,0000.0,0012.68,0004.41,0002.79
2024-05-01 03:34:00,SystemResetWarning,0825.9,5.01,000.00,025.6,024.8,000.0,034.0,027.3,012.3,0000.0,0013.62,0004.43,0002.81
2024-05-01 03:35:00,SystemResetWarning,0826.0,4.99,000.00,025.6,024.8,000.0,034.0,027.4,012.6,0000.0,0014.44,0004.47,0002.81
2024-05-01 03:36:00,SystemResetWarning,0826.1,4.99,000.00,025.6,024.8,000.0,034.0,027.4,012.6,0000.0,0014.57,0004.46,0002.81
2024-05-01 03:37:00,SystemResetWarning,0826.2,4.99,000.00,025.6,024.8,000.0,034.0,027.4,012.7,0000.0,0014.43,0004.45,0002.83
2024-05-01 03:38:00,SystemResetWarning,0826.3,5.01,000.00,025.6,024.8,000.0,034.0,027.4,012.4,0000.0,0014.27,0004.47,0002.85
2024-05-01 03:39:00,SystemResetWarning,0826.4,5.01,000.00,025.6,024.8,000.0,034.0,027.3,012.4,0000.0,0014.18,0004.43,0002.86
2024-05-01 03:40:00,SystemResetWarning,0826.4,4.99,000.00,025.6,024.8,000.0,034.0,027.3,012.4,0000.0,0014.37,0004.39,0002.84
2024-05-01 03:41:00,SystemResetWarning,0826.6,4.99,000.00,025.6,024.8,000.0,034.0,027.4,012.4,0000.0,0013.71,0004.34,0002.83
2024-05-01 03:42:00,SystemResetWarning,0826.6,5.01,000.00,025.6,024.8,000.0,034.0,027.3,011.8,0000.0,0013.88,0004.29,0002.83
2024-05-01 03:43:00,SystemResetWarning,0826.6,5.01,000.00,025.6,024.8,000.0,034.0,027.3,012.0,0000.0,0014.09,0004.30,0002.85
2024-05-01 03:44:00,SystemResetWarning,0826.6,4.99,000.00,025.6,024.8,000.0,034.0,027.3,012.3,0000.0,0013.30,0004.32,0002.84
2024-05-01 03:45:00,SystemResetWarning,0826.7,4.99,000.00,025.6,024.8,000.0,034.0,027.3,011.7,0000.0,0012.56,0004.29,0002.86
2024-05-01 03:46:00,SystemResetWarning,0826.8,5.01,000.00,025.6,024.8,000.0,034.0,027.3,011.5,0000.0,0012.16,0004.28,0002.85
2024-05-01 03:47:00,SystemResetWarning,0826.8,5.01,000.00,025.6,024.8,000.0,034.0,027.3,011.6,0000.0,0012.92,0004.29,0002.84
2024-05-01 03:48:00,SystemResetWarning,0826.8,5.00,000.00,025.6,024.8,000.0,034.0,027.3,011.8,0000.0,0013.36,0004.29,0002.85
2024-05-01 03:49:00,SystemResetWarning,0826.7,4.99,000.00,025.6,024.8,000.0,034.0,027.3,011.9,0000.0,0013.33,0004.27,0002.84
2024-05-01 03:50:00,SystemResetWarning,0826.8,4.99,000.00,025.6,024.8,000.0,034.0,027.3,011.9,0000.0,0013.39,0004.32,0002.86
2024-05-01 03:51:00,SystemResetWarning,0826.8,5.00,000.00,025.6,024.8,000.0,034.1,027.4,011.6,0000.0,0013.06,0004.32,0002.88
2024-05-01 03:52:00,SystemResetWarning,0826.8,5.01,000.00,025.6,024.8,000.0,034.1,027.4,011.5,0000.0,0012.54,0004.32,0002.88
2024-05-01 03:53:00,SystemResetWarning,0826.8,5.01,000.00,025.6,024.8,000.0,034.1,027.4,011.7,0000.0,0012.15,0004.29,0002.87
2024-05-01 03:54:00,SystemResetWarning,0826.8,5.01,000.00,025.6,024.8,000.0,034.1,027.4,011.6,0000.0,0012.54,0004.22,0002.84
2024-05-01 03:55:00,SystemResetWarning,0826.8,4.99,000.00,025.6,024.9,000.0,034.1,027.4,011.5,0000.0,0012.66,0004.18,0002.83
2024-05-01 03:56:00,SystemResetWarning,0826.8,4.99,000.00,025.6,024.9,000.0,034.1,027.5,011.6,0000.0,0012.51,0004.16,0002.82
2024-05-01 03:57:00,SystemResetWarning,0826.9,5.00,000.00,025.7,024.9,000.0,034.1,027.5,011.5,0000.0,0012.82,0004.16,0002.82
2024-05-01 03:58:00,SystemResetWarning,0826.9,5.01,000.00,025.7,024.9,000.0,034.1,027.5,011.7,0000.0,0011.90,0004.13,0002.82
2024-05-01 03:59:00,SystemResetWarning,0826.9,5.00,000.00,025.7,024.9,000.0,034.1,027.5,011.5,0000.0,0011.27,0004.11,0002.81
